TimeCDT,TemperatureF,Dew PointF,Humidity,Sea Level PressureIn,VisibilityMPH,Wind Direction,Wind SpeedMPH,Gust SpeedMPH,PrecipitationIn,Events,Conditions,WindDirDegrees,DateUTC
12:53 AM,21.9,9.0,58,30.14,10.0,South,10.4,-,N/A,,Clear,170,2014-03-17 05:53:00
1:53 AM,21.9,10.0,60,30.12,10.0,SSE,10.4,-,N/A,,Scattered Clouds,160,2014-03-17 06:53:00
2:53 AM,21.0,10.9,65,30.09,10.0,SSE,10.4,-,N/A,,Overcast,160,2014-03-17 07:53:00
3:53 AM,21.0,10.0,63,30.04,10.0,SSE,12.7,-,N/A,,Overcast,160,2014-03-17 08:53:00
4:53 AM,21.0,10.0,63,30.01,10.0,SSE,11.5,-,N/A,,Overcast,160,2014-03-17 09:53:00
5:53 AM,21.0,9.0,60,30.00,10.0,South,11.5,-,N/A,,Overcast,170,2014-03-17 10:53:00
6:53 AM,21.0,9.0,60,29.97,10.0,SSE,15.0,-,N/A,,Overcast,160,2014-03-17 11:53:00
7:53 AM,21.0,10.0,63,29.96,10.0,South,12.7,-,N/A,,Overcast,170,2014-03-17 12:53:00
8:53 AM,21.9,10.9,63,29.91,10.0,SSE,15.0,-,N/A,,Overcast,160,2014-03-17 13:53:00
9:53 AM,21.9,12.0,66,29.89,10.0,South,18.4,26.5,N/A,,Overcast,180,2014-03-17 14:53:00
10:53 AM,24.1,14.0,65,29.86,10.0,South,16.1,-,N/A,,Overcast,180,2014-03-17 15:53:00
11:53 AM,26.1,14.0,60,29.83,10.0,South,18.4,-,N/A,,Mostly Cloudy,180,2014-03-17 16:53:00
12:53 PM,27.0,15.1,61,29.78,10.0,South,15.0,-,N/A,,Overcast,170,2014-03-17 17:53:00
1:53 PM,30.0,17.1,59,29.77,10.0,South,11.5,-,N/A,,Mostly Cloudy,180,2014-03-17 18:53:00
2:53 PM,32.0,18.0,56,29.74,10.0,SSE,16.1,-,N/A,,Mostly Cloudy,160,2014-03-17 19:53:00
3:53 PM,35.1,18.0,50,29.71,10.0,South,9.2,-,N/A,,Overcast,180,2014-03-17 20:53:00
4:53 PM,37.0,19.0,48,29.70,10.0,South,11.5,-,N/A,,Clear,190,2014-03-17 21:53:00
5:53 PM,37.9,19.9,48,29.70,10.0,South,9.2,-,N/A,,Clear,180,2014-03-17 22:53:00
6:53 PM,37.0,19.9,50,29.71,10.0,South,6.9,-,N/A,,Partly Cloudy,180,2014-03-17 23:53:00
7:53 PM,34.0,19.0,54,29.71,10.0,SE,5.8,-,N/A,,Clear,130,2014-03-18 00:53:00
8:53 PM,34.0,18.0,52,29.73,10.0,SE,6.9,-,N/A,,Clear,130,2014-03-18 01:53:00
9:53 PM,33.1,19.0,56,29.74,10.0,ESE,9.2,-,N/A,,Clear,120,2014-03-18 02:53:00
10:53 PM,33.1,19.9,59,29.74,10.0,SSE,10.4,-,N/A,,Clear,150,2014-03-18 03:53:00
11:53 PM,34.0,21.0,59,29.74,10.0,SSE,9.2,-,N/A,,Clear,150,2014-03-18 04:53:00